THORAD AGENA D DEB

Satellite information

Favourite Embed

Satellite Type and Status

DEBRISIN ORBIT

Key statistics

Satellite THORAD AGENA D DEB at a glance.

Uptime

20338

Days in orbit

Revolutions

≈ 14.5

Per day

Orbit

SSO

Sun Synchronous Orbit

Inclination

99.7

Latest

Satellite identification and parameters

Extended collection of information and parameters for THORAD AGENA D DEB.

Object identification

Identified? True

Debris? True

Object name: THORAD AGENA D DEB

International designator: 1970-025FT

Object number (NORAD): 4921

Object ID (CCSDS): 4921

Country: UNITED STATES OF AMERICA (US)

Current information (Y/N): Y

RCS size: SMALL

Orbital parameters

Period: 99.167 minutes

Inclination: 99.7234 deg

SMA: 7096.951 km

Apoapsis: 746.801 km

Periapsis: 690.832 km

RAAN: 124.5325 deg

Eccentricy: 0.00394323

Argument of periapsis: 277.0065 deg

Mean anomaly: 82.6641 deg

Mean motion: 14.52094934 rev/day

Mean motion (dot): 0.0001814 rev/day2

B* drag term: 0.0044387875 1/REarth

Two-line elements (TLE)

Creation date: Dec. 11, 2025, 7:14 p.m.

Reference frame: TEME

Reference center: EARTH

Epoch: Dec. 11, 2025, 8:27 a.m. UTC

TLE line 0: 0 THORAD AGENA D DEB

TLE line 1: 1 04921U 70025FT 25345.35257072 .00018140 00000-0 44388-2 0 9993

TLE line 2: 2 04921 99.7234 124.5325 0039432 277.0065 82.6641 14.52094934848291

Live tracking on map

Real-time ground track for satellite THORAD AGENA D DEB.

In-orbit conjunctions

A list of the most updated potential collisions computed for object THORAD AGENA D DEB.

Target Orbit TCA Probability of collision Miss distance Type
CZ-6A DEB LEO 2025-11-27 16:00:46 0.0001560009 96.0 (m) DEBRIS
CZ-6A DEB LEO 2025-06-29 16:42:52 0.0004590566 118.0 (m) DEBRIS
CZ-6A DEB LEO 2025-05-09 00:43:46 0.000104849 193.0 (m) DEBRIS
TIROS 3 LEO 2025-02-27 09:01:58 0.0001014383 564.0 (m) PAYLOAD

Associated space launch

Meteorological research and development satellite

THORAD AGENA D DEB was lifted into orbit during the mission ‘Thorad SLV-2G Agena D | Nimbus 4’, on board a Thorad SLV-2G Agena D space rocket.

The launch took place on April 8, 1970, 8:17 a.m. from Space Launch Complex 2E.

For more information about the launch, click the button.

Launch to space Thorad SLV-2G Agena D | Nimbus 4
Thorad SLV-2G Agena D | Nimbus 4

Agency: N/A

Status: Launch Successful

Launch date: April 8, 1970, 8:17 a.m. UTC

Rocket: Thorad SLV-2G Agena D

Launch pad: Space Launch Complex 2E

Location: Vandenberg SFB, CA, USA

...

Latest news about this satellite

There are no fresh news available about this satellite. Check back as we update our databases every day.


Newsletter sign-up

Weekly statistics, charts and insights to help you stay on top of the space industry.